Showing default

SNAP-3 EDDIE, 40972

Orbit data source: Space-Track

SNAP-3 EDDIE, 40972 is a payload satellite owned by SMDC (US) in LEO that was launched on Thu, 08 Oct 2015 UTC via an ATLAS V 401 launch vehicle from the Air Force Western Test Range (AFWTR). Payload-class satellites include a variety of spacecraft equipped with specific instruments for various scientific and technological missions. These include communications satellites like Starlink; space stations such as the ISS; scientific satellites like the Hubble; Earth observation satellites from companies like Planet Labs, Umbra, and HawkEye 360; GPS; miniature CubeSats for education and research; and military/defense satellites.

Not visible in the next 10 days
Identifier
40972, 2015-058J
Orbit
LEO
Country
Flag of USUS
Related business
Manufacturer
Duocomm Miltec
Mission
Decayed Defense Communications
Bus & Motor
CUBESAT 3U, Unknown motor
Mass
5.3 kg wet, 4.5 kg dry
Launch date (UTC)
2015-10-08 (11 years ago)
Launch vehicle
ATLAS V 401
Launch site
Air Force Western Test Range (AFWTR)
Object type
Payload
Rocket body
Debris
Shape & HBR
Box + 8 Pan, 0.3 m
Radar Cross Section
0.085 m², Medium (>0.1 m² and < 1m²)

Expand to show TLE details & history
Last TLE update: 5 days ago

TLE from 5 days ago
0 SNAP-3 EDDIE
1 40972U 15058J   26259.67239215  .11527157  76591-5  12025-2 0  9994
2 40972  64.7203 129.6489 0013970 261.9375  98.0223 16.36947050133460
Epoch: 2026-09-16T16:08Z
TLE epoch observation values (Epoch: 2026-09-16T16:08:14.681Z)
Latitude
-0.00006°
Longitude
-108.03292°
Altitude
177.358 km
Speed
7.8 km/s
True Right ascension
08h 38m 35s
True Declination
0° 00' 00"
Sunlit
Object was in daylight at epoch
Visualization orbit readout
Latitude
Unknown
Longitude
Unknown
Altitude
Unknown
Speed
Unknown
Apparent Right ascension
Unknown
Apparent Declination
Unknown
Sunlit
N/A
Visualization observer readout
Local Sidereal Time
19:20:31
Azimuth
Unknown
Elevation
Unknown
Doppler factor
Unknown
Orbital elements
Apogee altitude
181.57 km
Perigee altitude
163.267 km
Semi-major axis
6,550.555 km
Eccentricity
0.0014
Inclination
64.7203°
RAAN
129.6489°
Arg. of periapsis
261.9375°
True anomaly
98.18078°
Mean anomaly
98.0223°
Eccentric anomaly
98.10154°
Mean motion
4.09379 °/min
Orbital period
87.94 mins
BSTAR
0.0012025
Loading maneuver chart data...
Computing Atmospheric mass density...
Loading historical data...
Loading historical data...
Loading historical data...
Loading historical data...
Loading historical data...
Loading historical data...
Loading historical data...

Documentation

Showing up to 5 results
|